Weather History for Athens, GA

Change the Weather History Date:

Sunday, November 25, 2012

  Actual Average Record
Temperature  
Mean Temperature 43 °F 51 °F  
Max Temperature 59 °F 62 °F 78 °F (1921)
Min Temperature 27 °F 40 °F 7 °F (1950)
Degree Days  
Heating Degree Days 22 14  
Month to date heating degree days 317 268  
Since 1 July heating degree days 440 403  
Moisture  
Dew Point 18 °F    
Average Humidity 46    
Maximum Humidity 75    
Minimum Humidity 16    
Precipitation  
Precipitation 0.00 in 0.14 in 2.38 in (1992)
Month to date precipitation 0.91 3.15  
Year to date precipitation 31.45 41.93  
Snow  
Snow 0.00 in 0.00 in 0.00 in (2001)
Month to date snowfall 0.0 0.0  
Since 1 July snowfall 0.0 0.0  
Since 1 September snowfall 0.0 0.0  
Snow Depth -    
Sea Level Pressure  
Sea Level Pressure 30.14 in    
Wind  
Wind Speed 2 mph (WSW)    
Max Wind Speed 9 mph    
Max Gust Speed 14 mph    
Visibility 10 miles    
Events      
T = Trace of Precipitation, MM = Missing Value Source: NWS Daily Summary

Daily Weather History Graph

Daily Weather History Graph

Search for Another Location

Airport:

Trip Planner

Search our weather history database for the weather conditions in past years. The results will help you decide how hot, cold, wet, or windy it might be!

Date:

Astronomy

Nov. 25, 2012 Rise Set
Actual Time 7:15 AM EST 5:25 PM EST
Civil Twilight 6:48 AM EST 5:52 PM EST
Nautical Twilight 6:17 AM EST 6:22 PM EST
Astronomical Twilight 5:47 AM EST 6:52 PM EST
Moon 3:37 PM EST (11/25) 4:33 AM EST (11/25)
Length of Visible Light 11h 03m
Length of Day
10h 09m
Waxing Gibbous, 93% of the Moon is Illuminated
Nov 25
Waxing Gibbous
Nov 28
Full
Dec 6
Last Quarter
Dec 13
New
Dec 20
First Quarter

Hourly Weather History & Observations

Time (EST) Temp. Windchill Dew Point Humidity Pressure Visibility Wind Dir Wind Speed Gust Speed Precip Events Conditions
12:51 AM 34.0 °F 29.8 °F 19.0 °F 54% 30.12 in 10.0 mi NW 4.6 mph - N/A   Clear
1:51 AM 30.9 °F 25.2 °F 19.9 °F 64% 30.14 in 10.0 mi WNW 5.8 mph - N/A   Clear
2:51 AM 30.0 °F - 21.0 °F 69% 30.14 in 10.0 mi Calm Calm - N/A   Clear
3:51 AM 30.2 °F - 19.4 °F 64% 30.13 in 10.0 mi Calm Calm - N/A   Clear
4:51 AM 30.9 °F - 19.9 °F 64% 30.15 in 10.0 mi Calm Calm - N/A   Clear
5:51 AM 30.9 °F - 21.0 °F 67% 30.18 in 10.0 mi Calm Calm - N/A   Clear
6:51 AM 28.9 °F - 19.9 °F 69% 30.18 in 10.0 mi Calm Calm - N/A   Clear
7:51 AM 28.9 °F - 21.0 °F 72% 30.20 in 10.0 mi Calm Calm - N/A   Clear
8:51 AM 37.9 °F - 25.0 °F 60% 30.20 in 10.0 mi Calm Calm - N/A   Clear
9:51 AM 44.1 °F - 21.0 °F 40% 30.20 in 10.0 mi Calm Calm - N/A   Clear
10:51 AM 48.0 °F - 19.9 °F 33% 30.20 in 10.0 mi South 5.8 mph - N/A   Clear
11:51 AM 51.1 °F - 19.0 °F 28% 30.17 in 10.0 mi SW 4.6 mph - N/A   Clear
12:51 PM 55.0 °F - 19.0 °F 24% 30.14 in 10.0 mi Calm Calm - N/A   Clear
1:51 PM 57.9 °F - 17.1 °F 20% 30.11 in 10.0 mi SSW 6.9 mph - N/A   Clear
2:51 PM 59.0 °F - 16.0 °F 19% 30.09 in 10.0 mi SW 4.6 mph - N/A   Clear
3:51 PM 57.9 °F - 14.0 °F 18% 30.08 in 10.0 mi West 5.8 mph - N/A   Clear
4:51 PM 55.9 °F - 10.9 °F 17% 30.09 in 10.0 mi West 5.8 mph - N/A   Clear
5:51 PM 51.1 °F - 12.9 °F 22% 30.10 in 10.0 mi Calm Calm - N/A   Clear
6:51 PM 50.0 °F - 14.0 °F 24% 30.11 in 10.0 mi Calm Calm - N/A   Clear
7:51 PM 46.9 °F - 14.0 °F 27% 30.13 in 10.0 mi SW 3.5 mph - N/A   Clear
8:51 PM 44.6 °F - 15.8 °F 31% 30.12 in 10.0 mi Calm Calm - N/A   Clear
9:51 PM 43.0 °F - 17.1 °F 35% 30.14 in 10.0 mi Calm Calm - N/A   Clear
10:51 PM 41.0 °F - 19.9 °F 43% 30.14 in 10.0 mi Calm Calm - N/A   Clear
11:51 PM 37.9 °F - 19.0 °F 47% 30.14 in 10.0 mi Calm Calm - N/A   Clear